Location: Hutchins
(43.0916°N, 93.8811°W)
Time: 07:14:22
(UTC+00:00)

ARIANE 6 FM1 Upper Stage - Pass Details

Date: 19 October 2024
Orbit: 560 x 596 km, 62.0° (Epoch: 04 November)

Event Time Altitude Azimuth Distance (km) Brightness Sun altitude
Rises 01:08:51 0° 326° (NW) 2,829 6.8 -19.3°
Reaches altitude 10° 01:11:12 10° 333° (NNW) 1,929 5.8 -19.8°
Enters shadow 01:15:18 41° 43° (NE) 864 3.3 -20.5°
